Dewpoint
39 40 40 42 43 43 43 45 46 47 48 49 53 55 56 58 59 58 58 59 58 58 58 58 57 58 57 57 57 55 54 53 50 46 47 47 47 48 47 47 47 47 47
37 38 38 39 39 40 40 40 42 42 45 45 46 48 51 53 56 58 58 58 57 57 57 57 56 57 56 56 55 54 53 52 50 46 45 45 46 46 46 45 45 45 44
37 37 37 37 37 38 39 39 41 41 42 43 44 45 46 47 49 51 54 56 57 57 57 57 56 56 55 56 55 54 54 52 50 46 44 44 44 45 44 44 43 42 42
36 35 34 34 35 36 37 38 39 40 40 40 41 42 43 44 45 46 48 50 52 54 56 57 57 56 55 55 54 54 53 52 50 48 45 43 43 43 43 42 41 41 40
34 32 31 32 33 33 34 36 37 38 38 39 39 40 41 42 43 44 44 44 46 48 52 53 54 55 56 56 54 53 52 50 48 46 44 42 41 41 41 41 41 40 40
31 30 29 29 30 30 32 32 32 34 35 37 37 38 39 40 42 44 44 44 44 45 47 49 50 51 52 53 53 53 52 50 48 46 43 43 41 41 41 40 39 38 37
26 29 28 28 28 28 29 30 30 31 32 33 35 36 37 39 41 42 43 44 43 43 44 45 46 47 48 49 50 51 50 50 49 47 44 43 42 41 40 39 37 37 37
23 23 25 26 25 25 25 26 27 30 30 31 32 35 36 35 36 40 41 43 43 42 42 42 43 44 45 46 47 47 47 48 47 46 45 43 43 42 42 40 39 36 33
23 23 24 25 25 25 24 25 26 29 28 28 31 32 32 33 35 33 38 41 41 41 41 41 41 42 43 45 45 44 44 44 45 46 47 46 45 44 41 38 36 36 34
23 23 24 24 24 24 24 24 25 25 26 28 29 29 30 30 33 33 34 39 39 40 41 41 41 41 42 43 43 42 41 41 40 41 41 42 42 42 40 39 37 37 34
20 19 20 22 22 23 23 24 24 24 25 26 26 27 28 30 31 31 32 35 38 39 40 40 40 41 42 43 44 41 41 38 38 38 38 38 39 40 39 37 37 37 34
18 17 17 17 18 19 21 22 22 23 24 25 26 26 27 29 29 28 29 31 33 36 37 39 39 41 41 42 43 41 41 38 36 35 35 35 35 36 36 34 34 32 31
16 16 16 17 17 18 19 20 22 23 24 25 26 26 27 27 26 28 27 28 30 31 35 38 39 40 41 41 42 42 40 35 34 33 33 32 33 32 31 30 29 28 28
17 17 17 17 18 19 19 20 22 23 24 25 26 26 27 25 25 25 26 26 27 27 30 32 35 39 40 40 41 42 39 35 34 33 31 29 29 29 29 28 28 27 27
19 18 18 19 19 19 20 21 23 25 26 27 27 27 25 26 26 25 28 28 28 29 29 31 33 35 36 37 38 39 38 35 34 32 28 27 27 27 27 26 27 26 27
21 21 21 22 22 22 22 22 25 27 29 28 27 27 27 27 27 25 25 27 27 29 29 28 30 34 34 35 35 36 35 34 33 31 29 28 27 26 26 24 24 25 24
23 23 23 23 22 22 22 23 24 25 26 26 26 26 27 27 26 26 25 25 26 27 28 30 31 33 33 34 35 35 34 34 33 31 30 29 28 27 26 24 23 23 20
24 23 23 23 23 24 24 25 25 25 24 24 24 25 26 26 26 25 23 22 23 26 28 29 30 31 33 33 33 33 33 32 31 31 30 29 28 27 26 25 23 21 19
22 22 22 23 25 25 25 25 25 25 24 25 26 26 25 26 26 26 25 24 24 25 27 28 29 31 31 33 33 32 32 31 31 31 30 29 28 28 27 25 25 23 20
20 20 21 22 24 24 23 23 24 24 26 26 25 25 25 24 25 25 26 25 26 25 27 28 28 29 31 32 33 32 31 32 31 31 31 29 29 28 27 26 26 25 24
22 23 23 23 23 23 23 23 24 24 25 23 23 25 25 26 27 25 24 24 25 26 28 24 26 29 31 31 33 32 31 31 31 31 30 29 28 27 27 27 26 25 26
23 23 23 24 22 21 22 24 24 24 24 23 23 24 25 26 25 24 24 24 25 27 25 25 26 28 30 31 32 31 31 31 31 31 31 29 28 28 27 26 26 25 25
23 24 22 20 21 21 22 23 23 24 25 25 25 25 25 23 23 23 23 24 26 25 24 24 24 26 29 31 32 32 31 31 32 32 31 29 28 27 27 26 25 24 23
23 22 20 20 21 21 21 21 23 21 22 23 22 22 22 22 23 23 24 24 25 25 25 25 26 25 28 30 31 32 32 33 32 32 32 30 28 28 27 26 25 24 23
22 21 20 19 19 20 20 20 20 21 22 22 21 21 20 21 21 21 22 23 24 25 27 27 28 28 28 29 31 32 32 32 32 32 32 31 30 29 27 26 26 25 24
21 20 20 20 19 19 19 18 18 18 19 20 20 20 20 20 20 21 21 22 23 24 27 28 29 28 28 29 31 32 32 32 32 32 32 31 30 29 28 27 26 26 25
Wind_Speed
13 12 10 11 10 15 16 14 15 13 14 13 12 12 12 10 12 13 15 15 17 18 15 16 18 14 14 15 17 17 13 11 8 2 3 6 9 13 11 9 9 8 7
16 16 16 15 14 17 14 14 13 13 12 12 11 10 11 12 12 13 18 17 19 19 21 18 19 15 18 14 14 12 13 14 8 12 4 7 7 11 12 13 10 7 8
12 13 13 14 16 16 14 15 13 14 15 14 14 14 14 13 13 13 12 11 15 21 19 19 21 18 20 17 18 16 16 14 16 11 10 5 3 12 10 7 9 6 5
10 11 14 14 14 13 12 13 14 14 15 15 14 15 15 14 13 14 14 15 14 14 12 15 17 18 21 19 20 21 18 18 16 15 10 9 6 7 10 12 10 6 9
12 13 12 12 13 15 16 16 14 13 13 13 15 15 15 15 13 15 13 14 15 17 15 12 13 14 20 21 18 17 18 19 15 15 12 8 10 12 20 9 9 10 9
9 11 13 16 15 13 14 15 16 17 17 17 17 15 15 11 14 16 16 15 13 13 16 16 14 16 18 19 21 22 23 21 21 18 13 15 14 12 12 14 10 7 7
7 6 5 5 7 12 15 14 15 14 15 16 17 17 19 18 19 21 19 14 16 15 13 14 17 15 16 16 19 22 22 23 23 22 22 17 14 16 16 14 12 9 9
13 14 15 16 17 17 16 15 15 12 14 14 14 14 15 16 21 22 23 16 14 16 16 17 14 16 16 16 14 15 16 15 15 15 20 17 15 20 21 18 19 11 7
12 14 15 15 15 14 15 14 12 8 12 12 12 14 14 15 17 18 19 16 15 17 16 15 14 15 15 15 15 17 15 11 7 13 12 15 16 19 22 18 16 16 7
11 13 12 12 13 16 17 18 13 16 17 14 13 11 14 15 16 19 17 13 16 15 14 13 15 15 15 15 16 15 17 16 14 11 11 11 15 17 22 17 20 20 11
16 17 17 15 13 13 13 14 16 17 15 15 16 16 15 12 15 18 19 15 13 14 14 15 13 14 16 16 20 16 17 11 14 15 15 15 13 16 14 13 16 18 16
8 10 13 14 13 13 13 14 16 15 15 17 18 17 12 12 13 16 19 20 19 14 13 14 16 17 16 17 19 17 14 12 14 14 14 15 15 15 15 13 11 8 5
20 19 19 20 20 21 20 20 18 16 16 15 13 14 15 14 13 13 18 21 20 19 15 16 21 21 21 18 21 19 18 14 15 16 18 15 13 13 13 11 10 10 9
14 16 17 17 18 17 16 16 16 16 15 11 10 12 14 14 15 12 12 14 19 18 20 18 22 21 18 17 15 18 17 18 18 17 15 10 12 13 12 11 9 13 10
14 14 15 14 16 17 16 16 16 16 14 13 13 12 13 14 15 19 18 16 17 19 24 17 17 13 13 13 12 14 15 15 15 13 14 14 14 14 12 12 9 11 8
14 13 15 16 15 16 17 19 19 19 18 17 18 16 13 18 22 20 21 21 23 24 19 17 17 14 13 14 14 13 15 19 16 14 14 15 17 17 15 12 9 12 13
14 15 15 16 16 17 17 17 19 17 16 15 16 16 17 19 21 22 20 21 21 21 14 14 13 15 14 13 14 14 13 16 16 16 15 15 14 14 17 15 12 13 11
15 19 15 15 16 16 17 17 16 17 17 17 14 14 17 20 20 19 18 20 14 12 11 13 14 13 15 13 12 13 12 12 15 17 18 18 18 19 17 17 14 13 13
16 15 15 15 15 18 17 17 16 17 18 17 12 15 12 16 17 18 19 13 13 13 12 12 13 14 15 12 12 13 12 14 15 17 17 19 19 20 18 17 17 18 15
14 18 18 16 16 17 15 17 17 15 14 11 13 14 12 12 13 14 11 12 13 12 12 10 11 14 13 14 12 12 13 13 14 16 16 17 18 19 19 20 19 18 15
14 15 19 17 16 17 17 17 17 16 14 14 15 15 19 17 11 12 14 14 13 13 10 12 13 13 14 12 12 11 12 13 14 15 16 16 17 18 18 20 19 18 15
15 15 15 15 15 16 17 17 16 17 16 16 16 15 19 15 13 14 14 14 14 13 14 14 12 14 13 12 12 13 12 12 13 14 15 16 17 17 18 18 18 17 17
15 14 15 15 15 19 17 16 16 16 15 14 13 12 11 13 13 14 15 15 14 14 13 13 14 15 13 11 11 13 14 13 13 15 17 17 17 17 18 19 19 19 19
13 12 14 14 15 17 16 17 14 18 17 14 13 13 13 14 14 15 16 15 15 16 14 14 13 15 14 13 13 12 12 11 10 13 15 16 17 20 18 18 19 19 18
11 11 13 15 15 16 16 16 16 16 15 15 13 14 14 15 16 16 15 15 15 16 16 14 13 13 15 17 17 16 14 15 13 13 14 16 18 20 19 19 19 18 16
11 12 14 14 14 14 15 15 15 16 16 15 15 13 15 15 15 16 17 17 16 17 17 15 14 15 16 16 17 18 17 17 16 17 15 15 17 17 17 18 21 17 18
Wind_Direction
40 42 27 21 29 41 29 14 19 5 5 3 354 343 322 296 233 226 226 219 224 233 224 223 232 232 234 228 233 211 201 187 172 171 124 157 168 171 149 151 148 145 141
26 31 28 19 22 38 22 14 8 13 8 0 360 347 340 336 327 243 226 224 220 228 228 222 226 224 224 214 221 207 203 209 189 184 153 151 174 170 158 159 169 163 172
25 31 28 21 22 20 13 14 13 9 11 3 4 355 348 338 331 322 317 297 242 238 235 227 236 226 228 218 214 219 214 203 200 186 167 156 134 168 161 163 176 175 186
32 32 26 15 20 14 10 11 8 10 9 4 3 354 349 339 337 336 330 319 307 294 279 243 235 230 224 219 212 215 211 208 199 191 166 158 153 160 163 177 182 194 201
16 21 16 7 12 11 9 7 6 3 358 357 357 355 348 346 339 337 329 320 312 305 293 276 265 249 229 226 216 222 203 199 187 192 172 159 166 164 194 173 183 197 219
19 14 355 357 6 3 3 0 3 354 351 354 351 345 342 337 325 329 333 325 312 299 293 293 274 261 258 249 230 215 206 200 199 184 192 192 181 169 160 170 168 175 229
11 355 349 353 355 350 350 349 352 345 347 346 341 338 335 332 332 336 331 318 309 301 293 288 285 274 261 250 246 236 223 218 213 192 192 187 170 176 167 179 178 172 183
1 354 352 348 349 350 349 344 341 334 342 339 332 327 326 323 325 329 327 317 306 297 287 283 281 279 271 253 237 225 218 208 202 192 189 182 173 174 172 187 191 165 106
349 339 337 336 332 331 334 326 324 316 325 321 319 321 321 315 315 320 325 315 303 300 291 281 273 273 267 243 231 219 210 200 166 190 185 185 175 179 162 154 167 168 185
334 326 323 321 325 326 324 326 320 321 318 314 309 311 319 316 316 318 316 323 311 296 288 278 273 260 262 246 230 224 219 207 176 162 153 153 159 167 171 176 167 184 171
343 341 338 332 318 310 306 309 310 312 312 309 311 314 313 314 320 321 318 314 312 313 301 283 268 262 258 251 231 216 221 189 181 172 164 164 169 169 174 176 178 174 181
311 321 329 330 324 313 297 297 300 298 300 304 311 315 311 307 314 320 320 318 309 312 308 310 284 265 251 235 233 224 216 179 174 179 174 180 182 179 177 173 163 145 137
340 331 328 324 319 318 318 314 311 302 300 299 300 304 308 300 307 305 320 319 321 317 316 306 307 292 256 239 227 217 193 182 182 188 197 194 183 169 144 123 111 110 86
326 319 316 311 311 308 305 304 301 295 289 288 287 292 296 303 306 308 310 315 315 313 315 308 309 301 261 239 226 222 194 188 192 200 196 167 150 159 163 152 154 156 144
327 318 314 312 308 307 302 296 294 283 275 283 290 289 303 303 297 302 310 312 309 305 305 298 299 289 276 243 228 211 184 186 188 184 174 173 174 168 169 164 154 161 162
330 325 317 316 310 307 307 308 301 291 282 284 290 289 296 298 299 305 310 310 309 308 305 297 291 275 263 254 230 208 192 188 182 186 183 177 175 175 170 170 162 175 175
320 320 317 316 312 312 309 304 304 302 286 274 285 291 298 304 304 304 303 311 308 309 296 298 307 303 269 250 241 221 208 200 180 180 176 176 168 170 171 174 172 172 181
321 317 312 303 302 302 298 295 293 292 296 289 268 273 289 301 302 301 305 312 311 302 295 304 303 307 292 256 240 227 208 189 184 180 178 172 170 170 169 173 181 182 178
312 307 302 303 299 304 308 305 297 297 298 285 294 300 292 301 304 300 303 302 297 298 293 292 306 303 302 275 245 232 215 203 191 185 182 181 174 174 175 173 177 190 182
309 310 313 308 306 302 301 305 300 297 299 295 291 284 289 295 291 290 280 276 283 281 284 288 294 294 295 297 267 231 218 211 198 193 191 182 177 177 175 173 176 183 190
291 290 302 312 299 301 302 301 299 298 292 296 294 286 289 290 286 294 294 289 283 285 274 287 290 293 298 297 282 250 227 215 204 196 191 181 176 178 175 171 171 174 171
289 291 294 294 300 302 300 293 296 294 289 289 293 292 294 299 292 290 287 284 281 268 279 274 285 287 289 291 286 264 244 222 206 199 189 181 176 174 172 166 166 171 177
289 295 306 305 304 307 303 300 300 296 289 292 298 301 296 291 287 289 286 285 281 276 268 278 278 279 276 279 278 262 247 228 205 189 183 176 171 170 170 166 166 170 175
310 312 309 308 309 314 311 304 309 310 304 303 302 299 293 289 287 286 285 285 288 285 281 273 266 269 271 277 279 267 245 232 203 192 181 174 173 173 170 166 168 171 171
317 314 310 313 314 311 311 316 314 313 308 302 298 303 301 297 296 295 293 289 288 287 280 271 266 263 265 268 270 268 244 230 203 185 180 175 171 171 170 167 164 166 168
308 308 313 312 308 310 313 314 314 313 311 312 306 301 301 300 298 296 297 295 293 291 287 275 266 259 261 267 268 266 249 231 209 188 175 171 168 170 167 164 160 161 163